Flag for Germany Weather past 2 weeks in Bitterfeld-Wolfen, Saxony-Anhalt, Germany

Now
64 °F

Clear.


Feels Like: 64 °F
Forecast: 54 / 83 °F
Wind: 6 mph from Northeast

Location: Leipzig-Schkeuditz

Current Time: Aug 2, 2015 at 12:51:39 AM

Latest Report: Aug 2, 2015 at 12:20 AM


Visibility: 10 mi

Pressure: 30.01 "Hg

Humidity: 60%

Dew point: 50 °F

Location of Bitterfeld-WolfenLocation

Historic Weather in Bitterfeld-Wolfen — Graph

°F

Bitterfeld-Wolfen temperature yesterday

Maximum temperature yesterday: 81 °F (at 3:50 PM)
Minimum temperature yesterday: 50 °F (at 4:50 AM)
Average temperature yesterday: 65 °F

Past Weeks' High & Low Weather Summary

 TemperatureHumidityPressure
High88 °F (Jul 22, 2:50 PM)100% (Jul 23, 1:50 AM)30.12 "Hg (Jul 23, 1:50 AM)
Low48 °F (Jul 31, 3:50 AM)30% (Aug 1, 3:50 PM)29.59 "Hg (Jul 25, 3:50 AM)
Average67 °F65%29.88 "Hg
* Reported Jul 17 11:20 PM — Aug 1 11:20 PM, Bitterfeld-Wolfen, Weather by CustomWeather, © 2015

Note: Actual official high and low records may vary slightly from our data, if they occured in-between our weather recording intervals... More about our weather records

Advertising

Bitterfeld-Wolfen weather history for previous 24 hours

 ConditionsComfort  
Time TempWeatherWind HumidityBarometerVisibility
11:20 PM
Sat, Aug 1
66 °FClear.6 mph56%30.01 "Hg10 mi
10:20 PM68 °FClear.7 mph53%30.01 "Hg10 mi
9:50 PM70 °FSunny.7 mph53%29.98 "Hg10 mi
9:20 PM70 °FSunny.6 mph50%29.98 "Hg10 mi
8:50 PM72 °FSunny.6 mph47%29.98 "Hg10 mi
8:20 PM73 °FSunny.8 mph44%29.98 "Hg10 mi
7:50 PM77 °FSunny.10 mph36%29.95 "Hg10 mi
7:20 PM79 °FSunny.6 mph32%29.95 "Hg10 mi
6:50 PM79 °FPassing clouds.6 mph30%29.95 "HgN/A
6:20 PM79 °FSunny.6 mph32%29.95 "Hg10 mi
5:50 PM79 °FSunny.5 mph30%29.95 "Hg10 mi
5:20 PM79 °FPassing clouds.7 mph30%29.95 "HgN/A
4:50 PM79 °FSunny.8 mph32%29.98 "Hg10 mi
4:20 PM79 °FSunny.9 mph32%29.95 "Hg10 mi
3:50 PM81 °FSunny.10 mph30%29.95 "Hg10 mi
3:20 PM79 °FSunny.12 mph32%29.98 "Hg10 mi
2:50 PM77 °FSunny.8 mph34%29.98 "Hg10 mi
2:20 PM77 °FSunny.8 mph34%29.98 "Hg10 mi
1:50 PM77 °FSunny.9 mph34%29.98 "Hg10 mi
1:20 PM75 °FSunny.12 mph39%30.01 "Hg10 mi
12:50 PM73 °FSunny.12 mph47%30.01 "Hg10 mi
12:20 PM72 °FSunny.12 mph44%30.01 "Hg10 mi
11:50 AM70 °FSunny.15 mph43%30.01 "Hg10 mi
11:20 AM70 °FSunny.16 mph43%30.01 "Hg10 mi
10:50 AM68 °FSunny.12 mph46%30.04 "Hg10 mi
10:20 AM66 °FSunny.9 mph52%30.04 "Hg10 mi
9:50 AM63 °FSunny.12 mph56%30.04 "Hg10 mi
9:20 AM59 °FSunny.10 mph63%30.01 "Hg10 mi
8:50 AM57 °FSunny.10 mph72%30.01 "Hg10 mi
8:20 AM55 °FSunny.8 mph72%30.01 "Hg10 mi
7:50 AM54 °FSunny.8 mph77%30.01 "Hg10 mi
7:20 AM52 °FSunny.7 mph82%30.04 "Hg10 mi
6:50 AM52 °FSunny.7 mph77%30.04 "Hg10 mi
6:20 AM50 °FClear.9 mph82%30.04 "Hg10 mi
5:50 AM52 °FClear.9 mph77%30.04 "Hg10 mi
5:20 AM50 °FClear.8 mph76%30.04 "Hg10 mi
4:50 AM50 °FClear.8 mph82%30.07 "Hg10 mi
4:20 AM52 °FClear.9 mph77%30.07 "Hg10 mi
3:50 AM52 °FClear.8 mph77%30.07 "Hg10 mi
3:20 AM52 °FClear.8 mph77%30.07 "Hg10 mi
2:50 AM52 °FClear.8 mph77%30.07 "Hg10 mi
2:20 AM52 °FClear.8 mph77%30.07 "Hg10 mi
1:50 AM52 °FClear.8 mph72%30.07 "Hg10 mi
1:20 AM52 °FClear.8 mph72%30.07 "Hg10 mi
12:50 AM54 °FClear.8 mph67%30.07 "Hg10 mi
12:20 AM55 °FClear.8 mph63%30.07 "Hg10 mi
Weather by CustomWeather, © 2015

See weather overviewHow to use our weather pages